Flag for Canada Weather past 2 weeks in Wood Buffalo, Alberta, Canada

Now
32 °F

Chilly.


Feels Like: 25 °F
Forecast: 26 / 43 °F
Wind: 7 mph from Southwest

Location: Fort McMurray CS

Current Time: Jan 24, 2015 at 9:58:42 PM

Latest Report: Jan 24, 2015 at 9:00 PM


Visibility: N/A

Pressure: 29.80 "Hg

Humidity: 86%

Dew point: 28 °F

Location of Wood BuffaloLocation

Historic Weather in Wood Buffalo — Graph

°F

Wood Buffalo temperature yesterday

Maximum temperature yesterday: 36 °F (at 2:00 PM)
Minimum temperature yesterday: 23 °F (at 10:00 PM)
Average temperature yesterday: 29 °F

Past Weeks' High & Low Weather Summary

 TemperatureHumidityPressure
High42 °F (Jan 22, 7:00 PM)100% (Jan 19, 9:00 AM)30.51 "Hg (Jan 19, 9:00 AM)
Low-30 °F (Jan 10, 7:00 AM)53% (Jan 21, 1:00 PM)29.29 "Hg (Jan 16, 1:00 PM)
Average15 °F87%29.92 "Hg
* Reported Jan 9 8:00 PM — Jan 24 8:00 PM, Wood Buffalo, Weather by CustomWeather, © 2014

Note: Actual official high and low records may vary slightly from our data, if they occured in-between our weather recording intervals... More about our weather records

Advertising

Wood Buffalo weather history for previous 24 hours

 ConditionsComfort  
Time TempWeatherWind HumidityBarometerVisibility
8:00 PM
Jan 24
32 °FChilly.7 mph89%29.81 "HgN/A
7:00 PM35 °FChilly.9 mph87%29.82 "HgN/A
6:00 PM35 °FChilly.8 mph89%29.82 "HgN/A
5:00 PM38 °FChilly.2 mph86%29.81 "HgN/A
4:00 PM38 °FChilly.9 mph86%29.81 "HgN/A
3:00 PM40 °FChilly.7 mph86%29.79 "HgN/A
2:00 PM38 °FChilly.6 mph86%29.78 "HgN/A
1:00 PM36 °FChilly.13 mph95%29.77 "HgN/A
12:00 PM35 °FChilly.8 mph97%29.77 "HgN/A
11:00 AM34 °FChilly.7 mph98%29.75 "HgN/A
10:00 AM33 °FChilly.5 mph100%29.72 "HgN/A
9:00 AM31 °FChilly.5 mph100%29.68 "HgN/A
8:00 AM32 °FChilly.2 mph100%29.64 "HgN/A
7:00 AM32 °FChilly.No wind100%29.59 "HgN/A
6:00 AM32 °FChilly.1 mph100%29.57 "HgN/A
5:00 AM32 °FChilly.2 mph100%29.55 "HgN/A
4:00 AM31 °FChilly.2 mph100%29.54 "HgN/A
3:00 AM31 °FChilly.5 mph99%29.55 "HgN/A
2:00 AM30 °FChilly.6 mph98%29.56 "HgN/A
1:00 AM29 °FChilly.7 mph98%29.58 "HgN/A
12:00 AM26 °FChilly.6 mph99%29.60 "HgN/A
11:00 PM
Jan 23
25 °FCold.1 mph98%29.63 "HgN/A
10:00 PM23 °FCold.5 mph99%29.67 "HgN/A
9:00 PM23 °FCold.3 mph99%29.70 "HgN/A
Weather by CustomWeather, © 2014

See weather overviewHow to use our weather pages